Погода в Скиве

Дания     56°33′50″N   9°01′47″E
темп.,
°C
ветер,
м/с
пор.,
м/с
влажн.,
%
обл.,
%
осадки,
мм/ч
давл.,
гПа
погр.,
м
12 августа, пт
пт1223:00+16св11825 0.0 102411
02:00+15всв11845 0.0 102411
05:00+15юв11860 0.0 102311
08:00+18сз01710 0.0 1023109
11:00+24ю11490 0.0 1023624
14:00+28ююз23350 0.0 10221475
17:00+28зсз33377 0.0 1021893
20:00+22с355647 0.0 1021165
13 августа, сб
сб1323:00+17св22695 0.0 102216
02:00+17юв22714 0.0 102111
05:00+16юз11696 0.0 102011
08:00+19ю12560 0.0 102099
11:00+26ююз12376 0.0 1020639
14:00+29зюз232925 0.0 10191521
17:00+29сз433376 0.0 10181025
20:00+23ссз34549 0.0 1018114
14 августа, вс
вс1423:00+18ссв226710 0.0 101811
02:00+17св11698 0.0 101711
05:00+16юв116938 0.0 101711
08:00+20вюв125661 0.0 101685
11:00+27юв34370 0.0 1015740
14:00+30юв34296 0.0 10142427
17:00+30вюв542883 0.0 10122645
20:00+25з1251100 0.0 101249
15 августа, пн
пн1523:00+21юв3455100 0.0 101256
02:00+20юв376390 0.0 1011132
05:00+18вюв3971100 0.0 1010198
08:00+20в4965100 0.0 1009296
11:00+23вюв5865100 0.6 1008573
14:00+25в575594 1.6 1007964
17:00+29в56416 0.0 10051841
20:00+24в596675 0.0 1004437
16 августа, вт
вт1623:00+20вюв498395 0.2 1004213
02:00+19юв399057 0.3 1004284
05:00+18ююв349727 0.1 1003100
08:00+20ю2387100 0.1 1004199
11:00+24ююз3361100 0.0 1004774
14:00+27зюз554745 0.1 10041726
17:00+24зсз666133 1.0 1005808
20:00+21зсз34745 1.0 1006358